RH
34 26 22 20 26 34 42 43 38 27 12 9 9 8 9 13 18 19 22 25 27 28 30 31 33 65 81 79 74 67 57 52 48 40 32 26 36 80 76 73 100 73 39
26 26 29 37 40 43 43 34 15 9 9 8 7 8 22 39 28 23 29 32 34 37 40 65 92 87 78 65 56 48 44 42 38 34 31 26 22 35 84 82 84 100 100
43 41 37 40 46 41 26 13 10 9 9 7 11 33 45 90 72 33 37 47 48 51 93 95 86 70 54 46 39 32 30 29 28 25 23 22 21 22 51 86 83 82 99
28 28 36 47 43 28 21 19 13 8 8 19 49 52 83 100 51 34 53 57 84 87 90 78 59 48 40 34 27 23 22 22 21 19 18 20 20 21 22 80 92 80 77
36 49 43 40 34 28 20 11 7 9 15 93 96 98 100 59 35 52 72 88 90 84 63 50 43 37 28 27 28 31 41 40 33 36 21 17 17 20 21 40 90 96 82
26 28 40 36 30 21 11 7 11 15 52 100 100 100 93 46 52 83 88 86 71 56 48 38 34 26 30 49 42 47 62 71 48 50 43 19 17 17 19 21 70 92 100
43 48 36 20 15 9 8 11 14 25 97 100 97 95 86 60 93 83 77 68 52 42 36 30 25 37 48 54 66 79 97 98 55 60 55 34 19 17 17 20 40 89 94
50 34 19 14 9 9 11 12 20 100 100 100 100 96 77 92 83 72 68 48 41 38 31 33 57 70 82 85 89 97 100 100 68 65 53 40 21 17 16 18 22 73 87
30 23 16 10 8 9 10 14 21 52 100 100 97 73 90 78 76 68 45 40 41 34 47 81 80 77 90 100 96 87 84 74 41 38 34 26 20 15 15 17 18 55 80
24 19 12 8 10 10 16 18 18 34 67 74 64 91 70 78 63 42 39 36 33 38 84 91 78 91 100 100 100 100 63 44 36 28 24 22 17 14 15 16 17 38 63
18 13 9 11 11 21 26 27 33 46 62 80 77 68 77 57 42 39 38 35 32 60 80 76 92 100 100 100 100 100 100 63 33 26 20 17 14 14 14 17 18 26 39
14 10 11 12 25 45 50 52 57 61 68 70 67 79 60 46 39 39 40 37 32 67 76 79 99 100 100 100 100 100 100 100 53 30 20 17 16 17 18 20 29 46 59
11 11 11 14 46 59 61 61 60 64 69 70 81 72 55 42 40 41 40 36 34 73 78 81 97 100 100 100 100 100 100 100 100 99 90 82 79 91 93 76 64 58 48
12 13 13 30 62 66 63 65 64 71 75 75 80 64 52 41 39 42 40 39 39 81 81 81 93 100 100 100 100 100 100 100 100 100 100 100 100 93 84 57 24 13 13
14 14 18 58 70 68 69 71 72 80 81 83 81 63 51 40 38 43 41 34 34 74 91 89 94 100 100 100 100 100 100 100 100 100 100 87 56 30 18 16 18 17 17
17 19 34 73 76 66 70 75 73 86 89 88 78 61 47 40 39 46 44 36 35 70 88 86 89 99 100 100 100 100 100 100 87 66 62 53 40 31 28 26 23 21 19
20 28 55 80 83 74 77 67 70 81 94 92 80 59 49 40 38 48 49 40 33 48 83 86 86 94 100 100 100 100 100 100 87 80 75 62 51 44 36 28 22 19 17
25 41 68 87 90 86 75 64 73 98 100 94 80 62 50 41 37 49 54 44 32 33 74 88 89 89 98 100 100 100 100 100 100 90 73 74 66 55 42 34 28 23 20
33 42 87 97 100 100 82 76 72 88 95 93 80 64 50 42 37 43 54 49 35 34 43 85 92 92 90 98 100 100 100 100 100 100 100 98 86 73 58 44 37 37 38
38 38 92 100 100 100 99 83 76 87 93 92 81 64 53 45 39 40 53 53 41 34 36 52 92 97 95 94 100 100 100 100 100 100 100 100 100 100 100 98 82 52 40
38 40 60 100 100 100 100 86 78 87 98 92 80 66 58 49 41 39 49 58 49 38 36 36 61 97 99 100 97 100 100 100 100 100 100 100 100 100 100 100 100 90 64
37 34 49 88 100 100 97 84 83 84 98 93 82 73 63 53 48 43 42 56 58 45 38 38 39 66 97 100 100 100 99 100 100 100 100 100 100 100 100 100 100 100 95
43 43 51 66 98 100 93 90 92 79 87 94 89 82 72 64 56 52 46 45 59 59 46 41 40 42 74 98 100 100 100 100 100 100 100 100 100 100 100 100 100 100 100
57 56 57 59 74 76 93 99 100 95 96 98 100 97 89 78 70 62 54 49 48 62 61 49 46 43 47 84 100 100 100 100 100 100 100 100 100 100 100 100 100 100 100
76 80 78 74 71 86 99 100 100 100 100 100 100 100 100 93 83 76 66 56 56 55 70 65 53 51 51 61 92 100 100 100 100 100 100 100 100 100 100 100 100 100 99
84 84 87 87 87 86 84 91 100 100 100 100 100 99 95 96 93 89 76 67 62 62 62 76 66 58 58 62 80 95 100 100 100 100 100 100 100 100 100 100 100 100 100
Wind_Speed
61 66 71 77 81 85 88 89 88 88 88 88 86 86 85 81 74 69 66 63 62 60 58 55 51 48 48 49 50 52 52 54 52 48 47 46 45 47 48 47 49 54 64
66 71 77 82 86 89 88 88 88 88 87 87 86 83 72 63 64 62 58 58 56 54 51 48 47 47 49 51 53 54 54 55 56 53 50 50 49 47 48 49 53 51 52
74 78 82 86 87 87 86 86 87 90 94 89 79 64 64 68 67 60 55 53 51 49 47 47 48 51 52 54 56 57 58 58 59 57 53 53 52 50 49 50 51 56 54
77 80 84 86 87 87 90 94 97 94 86 74 66 61 65 75 60 52 47 46 44 45 47 49 51 53 56 57 55 52 51 51 52 52 52 51 52 52 51 50 51 52 60
79 82 84 89 91 94 95 95 93 84 72 55 57 60 67 63 55 43 40 40 42 46 49 51 54 55 54 52 49 42 41 42 45 46 47 49 47 48 50 51 49 51 53
83 88 91 91 94 95 95 92 80 70 53 54 56 61 64 57 42 36 36 41 45 48 50 53 52 50 48 47 45 46 46 44 42 42 42 44 44 45 47 49 47 48 49
87 88 90 91 93 93 88 77 68 55 41 53 59 61 61 42 36 37 41 44 47 50 50 50 48 45 44 44 45 46 45 43 41 38 37 37 40 42 42 45 47 45 45
87 87 89 91 89 85 77 66 57 36 39 43 54 60 50 35 38 42 45 47 50 48 49 47 44 42 41 40 39 37 37 37 36 34 32 33 36 36 36 41 44 43 40
85 87 89 90 87 78 64 55 50 43 46 46 54 47 33 36 41 44 46 48 45 46 44 41 40 34 31 31 31 30 30 32 30 28 27 28 29 29 31 35 39 40 39
86 88 89 87 76 60 50 44 38 32 34 35 28 28 33 38 42 45 47 42 43 40 35 34 30 28 27 26 24 22 21 22 22 22 21 20 22 24 26 29 34 36 37
86 88 84 72 56 43 36 29 23 22 22 23 25 31 37 39 44 46 41 41 40 33 30 25 27 29 27 25 20 17 15 13 12 11 11 14 18 20 21 23 26 28 31
86 83 71 54 38 28 28 28 27 26 25 26 31 35 37 42 45 41 39 40 38 28 23 22 26 26 26 24 18 13 11 8 3 4 8 11 14 15 16 17 19 20 21
82 71 58 40 28 28 30 29 28 28 28 30 34 35 39 43 42 36 37 39 36 26 20 22 24 24 22 17 13 10 8 6 1 6 9 11 12 13 13 14 15 15 14
70 60 44 31 27 29 30 28 28 29 30 33 34 36 39 42 40 35 35 35 33 25 19 20 22 20 16 13 12 10 7 4 1 5 8 11 12 12 11 10 10 11 10
60 49 35 27 27 29 29 28 28 29 31 33 34 37 39 41 39 34 35 34 29 22 18 17 18 16 13 11 11 12 10 5 2 5 7 9 10 11 12 13 13 12 10
51 39 30 26 26 28 28 26 27 29 32 34 33 37 39 41 39 33 33 33 29 21 16 14 14 13 11 10 10 10 10 5 4 7 8 9 10 12 13 12 11 10 8
43 34 27 25 26 28 26 26 29 31 32 33 34 36 39 40 37 32 31 31 28 20 15 12 12 12 9 8 8 8 7 4 4 3 3 6 9 10 9 9 9 8 7
38 31 27 26 26 27 25 26 29 29 31 31 33 35 38 39 36 31 29 29 27 22 15 13 11 10 9 8 7 6 5 3 0 1 2 4 6 7 7 7 7 7 6
36 30 27 25 25 26 25 27 29 28 28 29 31 33 36 38 37 32 27 28 26 21 17 14 14 12 10 9 9 8 7 6 4 5 6 7 8 9 8 8 9 8 8
34 30 27 25 25 25 25 27 28 27 27 28 30 31 33 36 37 34 28 27 27 23 19 16 15 16 14 11 10 9 9 9 8 8 9 10 11 12 13 13 12 12 11
33 29 26 26 24 24 26 27 26 25 26 27 28 29 31 33 35 35 30 27 27 24 20 18 17 17 19 17 14 12 10 10 10 11 12 13 14 15 15 15 16 15 14
31 29 26 24 25 25 25 25 24 25 25 26 27 28 30 31 33 35 34 29 27 25 22 19 17 17 18 21 21 18 16 14 12 11 11 12 13 15 16 16 17 17 17
29 28 26 24 24 26 25 23 23 24 25 25 26 28 29 30 32 34 35 33 28 26 24 21 18 17 18 20 22 24 22 21 19 17 15 14 13 14 14 14 15 15 16
28 27 26 24 24 25 23 23 23 24 25 26 27 28 30 30 31 32 34 35 33 27 25 23 21 19 17 18 20 22 26 26 25 24 22 21 20 19 19 18 18 19 20
26 26 26 26 24 23 24 24 24 25 26 26 27 29 30 30 31 32 33 34 35 32 27 25 23 20 19 18 18 20 22 24 27 28 27 27 26 25 25 25 24 24 25
27 26 26 25 26 27 26 26 26 27 27 27 27 28 30 30 32 32 32 33 33 34 30 26 24 22 20 19 18 18 18 20 21 24 27 28 29 28 28 28 28 28 28
Wind_Direction
312 312 311 311 310 309 309 310 310 308 307 305 304 303 300 297 295 294 294 291 289 288 289 287 285 282 281 280 279 278 278 278 276 272 270 266 261 258 259 249 240 239 238
311 310 310 310 311 312 312 310 307 306 305 305 305 302 301 303 304 295 293 293 293 293 290 288 286 285 285 284 282 281 280 277 276 273 269 266 261 255 252 252 241 237 237
312 312 311 312 313 311 308 306 308 309 310 308 307 307 310 310 310 300 296 297 295 293 289 288 289 289 288 286 284 283 280 277 275 271 266 262 258 253 248 247 246 240 236
310 312 313 312 312 311 312 314 313 312 311 310 308 307 314 315 307 305 303 299 294 292 293 294 294 293 291 289 288 286 283 279 275 271 266 259 254 250 244 243 243 241 239
313 311 311 312 314 316 315 314 312 310 308 304 296 302 310 310 310 308 304 297 296 298 298 298 298 296 295 292 290 287 287 286 279 272 265 260 255 248 242 239 239 241 240
315 315 315 316 316 315 314 312 310 306 307 292 292 296 306 310 311 306 303 304 303 302 302 301 301 298 293 290 286 287 288 285 281 269 263 257 252 248 240 236 237 237 240
317 316 317 316 316 314 312 311 308 309 289 289 290 296 310 312 309 309 310 307 307 307 307 306 303 301 296 290 287 285 284 282 280 267 260 256 247 245 238 232 232 235 237
317 318 316 317 316 313 313 313 313 294 291 286 295 307 312 310 311 315 313 313 313 313 313 311 310 307 305 300 294 288 282 280 275 266 260 251 244 240 235 228 229 232 234
317 316 317 316 314 315 315 313 312 299 278 282 298 308 309 313 316 316 315 316 316 319 315 314 315 318 314 309 304 294 282 275 272 266 258 248 239 234 226 222 225 229 230
317 318 318 316 318 318 319 318 318 313 303 301 308 308 314 318 318 318 318 318 322 320 316 316 321 323 325 323 321 313 297 283 273 263 254 242 229 223 216 217 221 225 229
318 319 318 319 319 322 328 333 336 338 336 321 317 318 321 323 323 321 321 323 326 323 319 321 325 327 328 327 326 321 318 301 282 259 233 211 208 209 207 210 218 225 232
319 319 319 318 317 324 330 330 329 328 325 323 322 323 325 327 327 324 325 326 328 328 321 325 329 329 330 330 330 329 326 325 310 196 183 183 185 189 196 206 217 224 229
320 320 319 314 310 317 322 323 323 324 325 323 324 325 327 331 329 327 328 329 330 329 323 328 332 335 338 341 347 351 341 340 95 142 154 164 169 174 181 191 202 215 224
321 319 315 308 307 314 317 317 319 322 323 323 324 327 330 333 332 328 331 332 329 327 323 330 336 341 349 356 8 13 12 6 67 149 153 158 167 178 190 191 184 171 165
321 317 310 303 307 313 315 315 318 322 320 323 324 328 332 335 334 330 332 333 331 323 314 324 335 342 355 10 19 26 30 40 116 161 169 170 164 159 156 155 148 143 147
320 314 306 304 308 316 316 314 319 319 319 324 326 331 334 336 334 331 332 335 331 319 307 312 331 337 346 356 4 15 31 52 104 123 124 128 136 148 154 155 154 159 165
318 313 305 304 307 315 314 318 321 319 320 324 326 332 335 337 336 331 331 334 331 320 305 294 315 328 331 336 344 355 10 45 107 106 125 151 160 165 169 174 177 185 191
317 311 306 305 305 312 309 316 320 319 321 321 326 331 336 339 339 333 329 333 334 325 309 285 290 310 318 314 312 319 324 330 102 174 216 215 201 200 203 204 205 213 227
316 309 305 304 304 308 305 314 318 318 319 320 325 331 336 340 341 337 330 332 336 329 313 295 272 278 292 301 299 293 287 280 261 238 231 233 231 232 236 239 240 239 248
314 307 302 302 304 306 304 313 316 317 319 320 325 330 336 341 342 340 335 333 337 334 319 300 283 264 266 276 283 284 281 269 259 250 246 241 239 243 251 254 255 256 258
315 309 299 299 302 303 305 311 314 316 317 320 323 329 336 340 343 344 340 334 335 334 328 309 289 276 259 257 262 264 268 268 263 256 252 249 249 250 253 256 258 255 258
316 314 301 295 297 300 305 308 311 315 315 318 320 327 333 338 344 347 346 337 331 333 330 321 300 285 273 257 251 252 253 256 256 253 251 249 248 249 252 253 254 252 254
315 318 311 296 294 299 303 305 308 314 317 316 317 322 327 333 340 344 345 343 333 329 331 327 316 295 286 273 260 249 247 249 253 254 254 253 251 249 248 246 246 249 253
314 315 317 312 301 299 297 302 304 310 316 316 314 316 322 327 333 339 340 341 341 331 327 329 323 312 295 285 272 263 254 248 248 251 255 257 257 256 255 256 257 258 259
320 319 314 314 309 303 299 298 300 304 308 312 312 313 316 322 326 332 334 336 338 337 327 325 325 319 306 296 286 272 264 258 252 249 251 254 256 258 259 261 262 263 263
318 318 320 319 312 308 304 298 295 298 302 308 310 314 315 317 322 323 328 332 333 336 333 323 322 321 314 302 295 285 274 266 261 256 253 252 253 255 257 259 261 261 263